GW0687 Weather Reports


time (UTC)temp
F
wind
direction
speed
knots
gust
knots
rain 1hr
in
rain 24hr
in
rain mn
in
humidity
%
barometer
mb
20260503010032 61 0.0 0.0 0.00 0.00 0.00 41 1010.5
20260503005531 61 0.0 0.0 0.00 0.00 0.00 41 1010.6
20260503005037 61 0.0 0.0 0.00 0.00 0.00 41 1010.7
20260503004531 61 0.0 0.0 0.00 0.00 0.00 43 1010.7
20260503004032 62 0.0 0.0 0.00 0.00 0.00 42 1010.9
20260503003530 62 0.0 0.0 0.00 0.00 0.00 41 1010.8
20260503003032 62 0.0 0.0 0.00 0.00 0.00 42 1010.8
20260503002531 62 0.0 0.0 0.00 0.00 0.00 41 1010.8
20260503002031 62 0.0 0.0 0.00 0.00 0.00 40 1011.1
20260503001530 62 0.0 0.0 0.00 0.00 0.00 40 1011.1
20260503001036 63 0.0 0.0 0.00 0.00 0.00 38 1011.0
20260503000531 63 0.0 0.0 0.00 0.00 0.00 38 1011.1
20260503000031 63 0.0 0.0 0.00 0.00 0.00 38 1010.9
20260502235531 63 0.0 0.0 0.00 0.00 0.00 36 1010.9
20260502235031 63 0.0 0.0 0.00 0.00 0.00 36 1010.8
20260502234532 63 0.0 0.0 0.00 0.00 0.00 36 1010.9
20260502234031 63 0.0 0.0 0.00 0.00 0.00 35 1010.8
20260502233531 63 0.0 0.0 0.00 0.00 0.00 39 1010.9
20260502233031 63 0.0 0.0 0.00 0.00 0.00 37 1010.9
20260502232531 63 0.0 0.0 0.00 0.00 0.00 37 1011.0
20260502232033 63 0.0 0.0 0.00 0.00 0.00 36 1011.0
20260502231033 63 0.0 0.0 0.00 0.00 0.00 37 1011.1
20260502230531 63 0.0 0.0 0.00 0.00 0.00 37 1011.2
20260502230033 63 0.0 0.0 0.00 0.00 0.00 36 1011.2
20260502225530 63 0.0 0.0 0.00 0.00 0.00 37 1011.3
20260502225036 63 0.0 0.0 0.00 0.00 0.00 37 1011.3
20260502224530 63 0.0 0.0 0.00 0.00 0.00 35 1011.3
20260502223530 63 0.0 0.0 0.00 0.00 0.00 34 1011.5
20260502223032 64 0.0 0.0 0.00 0.00 0.00 35 1011.5
20260502221530 64 0.0 0.0 0.00 0.00 0.00 33 1011.7
20260502221031 65 0.0 0.0 0.00 0.00 0.00 35 1011.7
20260502220033 64 0.0 0.0 0.00 0.00 0.00 33 1011.9
20260502215531 64 0.0 0.0 0.00 0.00 0.00 37 1011.9
20260502215031 64 0.0 0.0 0.00 0.00 0.00 33 1012.0
20260502214531 64 0.0 0.0 0.00 0.00 0.00 33 1012.0
20260502214031 64 0.0 0.0 0.00 0.00 0.00 35 1012.1
20260502213531 64 0.0 0.0 0.00 0.00 0.00 34 1012.2
20260502213034 64 0.0 0.0 0.00 0.00 0.00 34 1012.2
20260502212534 64 0.0 0.0 0.00 0.00 0.00 34 1012.3
20260502211532 64 0.0 0.0 0.00 0.00 0.00 34 1012.4
20260502211033 64 0.0 0.0 0.00 0.00 0.00 36 1012.5
20260502210531 64 0.0 0.0 0.00 0.00 0.00 34 1012.6
20260502210035 64 0.0 0.0 0.00 0.00 0.00 33 1012.7
20260502205530 64 0.0 0.0 0.00 0.00 0.00 34 1012.9
20260502204531 63 0.0 0.0 0.00 0.00 0.00 35 1013.1
20260502204031 63 0.0 0.0 0.00 0.00 0.00 34 1013.1
20260502203531 63 0.0 0.0 0.00 0.00 0.00 34 1013.3
20260502203031 63 0.0 0.0 0.00 0.00 0.00 35 1013.3
20260502202530 62 0.0 0.0 0.00 0.00 0.00 34 1013.5
20260502202032 62 0.0 0.0 0.00 0.00 0.00 34 1013.5
20260502201530 63 0.0 0.0 0.00 0.00 0.00 35 1013.7
20260502201031 63 0.0 0.0 0.00 0.00 0.00 35 1013.7
20260502200530 62 0.0 0.0 0.00 0.00 0.00 34 1013.8
20260502200236 62 0.0 0.0 0.00 0.00 0.00 34 1014.0
20260502195037 61 0.0 0.0 0.00 0.00 0.00 35 1014.3
20260502194531 61 0.0 0.0 0.00 0.00 0.00 39 1014.4
20260502193532 61 0.0 0.0 0.00 0.00 0.00 34 1014.5
20260502192531 61 0.0 0.0 0.00 0.00 0.00 36 1014.7
20260502192033 61 0.0 0.0 0.00 0.00 0.00 35 1014.8
20260502191531 61 0.0 0.0 0.00 0.00 0.00 36 1014.8
20260502191032 61 0.0 0.0 0.00 0.00 0.00 35 1014.7
20260502190533 61 0.0 0.0 0.00 0.00 0.00 37 1015.0
20260502190035 60 0.0 0.0 0.00 0.00 0.00 35 1015.1
20260502185530 60 0.0 0.0 0.00 0.00 0.00 35 1015.2
20260502185032 60 0.0 0.0 0.00 0.00 0.00 36 1015.2
20260502184531 59 0.0 0.0 0.00 0.00 0.00 37 1015.3
20260502184033 59 0.0 0.0 0.00 0.00 0.00 35 1015.5
20260502183530 59 0.0 0.0 0.00 0.00 0.00 35 1015.5
20260502183031 59 0.0 0.0 0.00 0.00 0.00 36 1015.5
20260502182531 59 0.0 0.0 0.00 0.00 0.00 38 1015.6
20260502182032 59 0.0 0.0 0.00 0.00 0.00 38 1015.7
20260502181532 58 0.0 0.0 0.00 0.00 0.00 36 1015.8
20260502181033 58 0.0 0.0 0.00 0.00 0.00 39 1015.8
20260502164031 56 0.0 0.0 0.00 0.00 0.00 41 1017.2
20260502163531 56 0.0 0.0 0.00 0.00 0.00 39 1017.3
20260502163034 56 0.0 0.0 0.00 0.00 0.00 37 1017.5
20260502162530 56 0.0 0.0 0.00 0.00 0.00 40 1017.5
20260502162032 56 0.0 0.0 0.00 0.00 0.00 41 1017.5
20260502161532 55 0.0 0.0 0.00 0.00 0.00 43 1017.6
20260502152032 52 0.0 0.0 0.00 0.00 0.00 46 1017.9
20260502151030 52 0.0 0.0 0.00 0.00 0.00 50 1018.1
20260502150531 52 0.0 0.0 0.00 0.00 0.00 50 1018.1
20260502130529 42 0.0 0.0 0.00 0.00 0.00 64 1018.6
20260502122530 39 0.0 0.0 0.00 0.00 0.00 69 1018.5
20260502122033 39 0.0 0.0 0.00 0.00 0.00 71 1018.5
20260502121530 38 0.0 0.0 0.00 0.00 0.00 71 1018.4
20260502121031 37 0.0 0.0 0.00 0.00 0.00 73 1018.5
20260502120530 37 0.0 0.0 0.00 0.00 0.00 75 1018.5
20260502115530 36 0.0 0.0 0.00 0.00 0.00 77 1018.5
20260502115032 35 0.0 0.0 0.00 0.00 0.00 76 1018.5
20260502114032 35 0.0 0.0 0.00 0.00 0.00 76 1018.4
20260502113529 35 0.0 0.0 0.00 0.00 0.00 75 1018.3
20260502113030 35 0.0 0.0 0.00 0.00 0.00 74 1018.2
20260502112530 36 0.0 0.0 0.00 0.00 0.00 73 1018.2
20260502112031 36 0.0 0.0 0.00 0.00 0.00 73 1018.2
20260502111528 36 0.0 0.0 0.00 0.00 0.00 73 1018.2
20260502111030 36 0.0 0.0 0.00 0.00 0.00 73 1018.2
20260502110529 36 0.0 0.0 0.00 0.00 0.00 73 1018.1
20260502105529 36 0.0 0.0 0.00 0.00 0.00 73 1018.2
20260502105035 36 0.0 0.0 0.00 0.00 0.00 73 1018.1
20260502104530 36 0.0 0.0 0.00 0.00 0.00 73 1018.1
20260502103530 36 0.0 0.0 0.00 0.00 0.00 73 1018.2
20260502103032 36 0.0 0.0 0.00 0.00 0.00 72 1018.1
20260502101030 37 0.0 0.0 0.00 0.00 0.00 70 1018.1
20260502100530 37 0.0 0.0 0.00 0.00 0.00 70 1018.1
20260502091530 37 0.0 0.0 0.00 0.00 0.00 70 1018.0
20260502091032 38 0.0 0.0 0.00 0.00 0.00 69 1018.0
20260502090531 38 0.0 0.0 0.00 0.00 0.00 69 1018.0
20260502071529 39 0.0 0.0 0.00 0.00 0.00 66 1018.2
20260502071032 39 0.0 0.0 0.00 0.00 0.00 66 1018.3
20260502070034 39 0.0 0.0 0.00 0.00 0.00 66 1018.3
20260502065530 38 0.0 0.0 0.00 0.00 0.00 66 1018.4
20260502065030 38 0.0 0.0 0.00 0.00 0.00 66 1018.5
20260502064530 38 0.0 0.0 0.00 0.00 0.00 67 1018.4
20260502064030 38 0.0 0.0 0.00 0.00 0.00 68 1018.4
20260502063529 38 0.0 0.0 0.00 0.00 0.00 68 1018.5
20260502063029 38 0.0 0.0 0.00 0.00 0.00 68 1018.5
20260502062529 38 0.0 0.0 0.00 0.00 0.00 68 1018.5
20260502062030 38 0.0 0.0 0.00 0.00 0.00 68 1018.5
20260502061529 37 0.0 0.0 0.00 0.00 0.00 68 1018.6
20260502061032 37 0.0 0.0 0.00 0.00 0.00 69 1018.6
20260502060032 37 0.0 0.0 0.00 0.00 0.00 69 1018.5
20260502055529 37 0.0 0.0 0.00 0.00 0.00 69 1018.6
20260502055030 37 0.0 0.0 0.00 0.00 0.00 69 1018.6
20260502054531 37 0.0 0.0 0.00 0.00 0.00 69 1018.6
20260502054032 37 0.0 0.0 0.00 0.00 0.00 68 1018.6
20260502053529 37 0.0 0.0 0.00 0.00 0.00 68 1018.7
20260502052031 38 0.0 0.0 0.00 0.00 0.00 67 1018.7
20260502051529 38 0.0 0.0 0.00 0.00 0.00 67 1018.6
20260502051031 38 0.0 0.0 0.00 0.00 0.00 67 1018.7
20260502050530 38 0.0 0.0 0.00 0.00 0.00 66 1018.6
20260502045531 38 0.0 0.0 0.00 0.00 0.00 66 1018.6
20260502045032 38 0.0 0.0 0.00 0.00 0.00 66 1018.5
20260502044531 38 0.0 0.0 0.00 0.00 0.00 66 1018.5
20260502043531 38 0.0 0.0 0.00 0.00 0.00 65 1018.6
20260502043032 38 0.0 0.0 0.00 0.00 0.00 63 1018.5
20260502042531 38 0.0 0.0 0.00 0.00 0.00 63 1018.6
20260502042031 38 0.0 0.0 0.00 0.00 0.00 63 1018.5
20260502041531 39 0.0 0.0 0.00 0.00 0.00 64 1018.5
20260502041032 39 0.0 0.0 0.00 0.00 0.00 64 1018.5
20260502040531 39 0.0 0.0 0.00 0.00 0.00 64 1018.5
20260502040032 39 0.0 0.0 0.00 0.00 0.00 63 1018.5
20260502035032 39 0.0 0.0 0.00 0.00 0.00 62 1018.6
20260502034530 39 0.0 0.0 0.00 0.00 0.00 62 1018.6
20260502034032 39 0.0 0.0 0.00 0.00 0.00 61 1018.7
20260502033530 39 0.0 0.0 0.00 0.00 0.00 62 1018.6
20260502033032 39 0.0 0.0 0.00 0.00 0.00 60 1018.7
20260502032531 40 0.0 0.0 0.00 0.00 0.00 60 1018.7
20260502032032 40 0.0 0.0 0.00 0.00 0.00 60 1018.6
20260502031531 40 0.0 0.0 0.00 0.00 0.00 60 1018.6
20260502031035 40 0.0 0.0 0.00 0.00 0.00 60 1018.6
20260502030531 40 0.0 0.0 0.00 0.00 0.00 60 1018.5
20260502030033 40 0.0 0.0 0.00 0.00 0.00 59 1018.6
20260502025530 40 0.0 0.0 0.00 0.00 0.00 59 1018.5
20260502025031 40 0.0 0.0 0.00 0.00 0.00 58 1018.6
20260502024033 41 0.0 0.0 0.00 0.00 0.00 55 1018.6
20260502023532 41 0.0 0.0 0.00 0.00 0.00 56 1018.6
20260502023035 41 0.0 0.0 0.00 0.00 0.00 54 1018.6
20260502022531 41 0.0 0.0 0.00 0.00 0.00 56 1018.6
20260502022032 41 0.0 0.0 0.00 0.00 0.00 57 1018.5
20260502021530 42 0.0 0.0 0.00 0.00 0.00 56 1018.5
20260502021031 42 0.0 0.0 0.00 0.00 0.00 57 1018.5
20260502020531 42 0.0 0.0 0.00 0.00 0.00 57 1018.5
20260502020043 43 0.0 0.0 0.00 0.00 0.00 57 1018.4
20260502015033 43 0.0 0.0 0.00 0.00 0.00 53 1018.3
20260502014533 44 0.0 0.0 0.00 0.00 0.00 51 1018.1
20260502014035 44 0.0 0.0 0.00 0.00 0.00 49 1018.2
20260502013035 45 0.0 0.0 0.00 0.00 0.00 47 1018.2
20260502012532 45 0.0 0.0 0.00 0.00 0.00 47 1018.1
20260502012033 46 0.0 0.0 0.00 0.00 0.00 46 1018.1
20260502011533 46 0.0 0.0 0.00 0.00 0.00 46 1018.1
20260502011033 47 0.0 0.0 0.00 0.00 0.00 42 1018.0
20260502010533 47 0.0 0.0 0.00 0.00 0.00 42 1018.1